[[{"header":{"parameterUnit":"m.s-1","parameterCategory":1,"la1":30.2991,"la2":30.254,"lo1":-89.0895,"lo2":-89.0444,"dy":0.0017,"dx":0.0017,"nx":28,"ny":28,"refTime":"2026-02-25T09:00:00:Z","depth":0,"parameterNumber":2,"parameterNumberName":"U-component_of_WINDS"},"data":[0,0,0,0,0,0,0,0,0,0,0,0,0,0,0,0,0,0,0,0,0,0,0,0,0,0,0,0,0,0,0,0,0,0,0,0,0,0,0,0,0,0,0,0,0,0,0,0,0,0,0,0,0,0,0,0,0,0,1.8994,1.8997,0,1.9217,1.922,1.9223,1.9287,1.9286,1.9285,1.9284,1.9516,1.9523,1.953,0,0,0,0,0,0,0,0,0,0,0,0,0,1.8626,1.8633,1.8994,1.8997,1.9,1.9217,1.922,1.9223,1.9288,1.9286,1.9285,1.9283,1.9513,1.9522,1.9531,0,0,0,0,0,0,0,0,0,0,0,0,0,1.8811,1.8635,1.8994,1.9058,1.9066,1.9216,1.922,1.9224,1.9288,1.9286,1.9284,1.9283,1.951,1.9521,1.9532,1.9635,0,0,1.9565,1.957,0,0,0,0,0,0,0,0,1.8801,1.8825,1.9046,1.9054,1.9063,1.9223,1.9175,1.9362,1.9288,1.9204,1.9284,1.9282,1.942,1.9438,1.9484,1.9646,1.9656,1.9566,1.9573,1.9577,1.958,0,0,0,0,0,0,0,1.8788,1.8816,1.9083,1.9049,1.9059,1.9077,1.9101,1.9211,1.9319,1.9211,1.9216,1.9242,1.9424,1.9473,1.949,1.9659,1.9566,1.9575,1.9582,1.9587,1.9919,1.9921,0,0,0,0,0,0,1.8764,1.8804,1.9075,1.9089,1.8925,1.9085,1.9112,1.9173,1.9318,1.9338,1.9243,1.9244,1.9455,1.9477,1.9498,1.963,1.9577,1.9588,1.9594,1.9917,1.9919,1.9922,0,0,0,0,0,0,1.8756,1.8787,1.9066,1.8948,1.8985,1.9093,1.9161,1.9179,1.9228,1.9342,1.9362,1.9273,1.9455,1.9483,1.9601,1.9639,1.9592,1.9602,1.9914,1.9918,1.9921,1.9894,0,0,0,0,0,0,1.8745,1.8784,1.8824,1.8949,1.8991,1.9164,1.9164,1.9184,1.9246,1.9249,1.9376,1.9395,1.9456,1.9584,1.9612,1.9653,1.9611,1.9911,1.9916,1.992,1.9892,1.9896,1.9899,0,0,0,0,0,1.8731,1.8808,1.8825,1.8858,1.9043,1.9166,1.9191,1.9258,1.9249,1.929,1.9364,1.9391,1.963,1.9596,1.9627,1.9673,1.9909,1.9914,1.9919,1.989,1.9895,1.9899,0,0,0,0,0,0,1.8685,1.8825,1.8846,1.8965,1.9053,1.9177,1.9231,1.9261,1.9354,1.9353,1.9434,1.9462,1.9574,1.9635,1.9594,1.9781,1.977,1.9782,1.9737,1.9743,1.9747,1.973,1.962,0,0,0,0,0,1.8688,1.8776,1.8894,1.8987,1.903,1.9123,1.9179,1.9223,1.9318,1.9356,1.9438,1.953,1.9626,1.9688,1.9782,1.99,1.993,1.9947,1.9951,1.9953,1.9963,2.0031,2.0041,1.9939,1.9939,1.9939,0,0,1.8697,1.8784,1.8835,1.898,1.9054,1.9143,1.9154,1.9248,1.9316,1.9371,1.9487,1.955,1.9658,1.9777,1.9833,1.9831,1.9997,1.996,1.9961,1.997,2.0037,2.0047,2.0056,1.9942,1.9942,1.9941,0,0,1.8758,1.8832,1.8919,1.8992,1.9103,1.9164,1.9184,1.9304,1.9348,1.9466,1.9509,1.9591,1.9754,1.983,1.9889,1.9979,2.0008,2.0007,2.0028,2.0093,2.0101,2.0109,2.0143,2.0153,2.0016,2.0016,2.0016,0,1.8755,1.8891,1.896,1.9053,1.9116,1.9168,1.9257,1.9325,1.9461,1.9504,1.9499,1.9705,1.9782,1.9919,1.9941,1.9987,2.0014,1.9994,2.0094,2.0103,2.0111,2.0144,2.0156,2.0016,2.0016,2.0016,2.0016,0,1.8883,1.8976,1.9033,1.9162,1.9232,1.9322,1.9405,1.9468,1.9505,1.9567,1.9687,1.978,1.9895,1.993,1.9969,2.0074,2.0069,2.0078,2.007,2.0119,2.0151,2.0164,2.0015,2.0015,2.0015,2.0015,0,0,1.8922,1.9088,1.9108,1.9168,1.9293,1.9368,1.946,1.9572,1.9624,1.9716,1.9797,1.9934,1.9943,2.0011,2.0058,2.0115,2.0182,2.0118,2.0122,2.0128,2.0305,2.0299,2.0312,2.0201,2.0204,2.0206,2.0297,0,1.9001,1.9168,1.9232,1.9369,1.9458,1.9508,1.9589,1.9676,1.9736,1.982,1.9887,1.9983,1.9987,2.0029,2.0087,2.0161,2.0219,2.0155,2.0279,2.0283,2.0252,2.0329,2.0323,2.0404,2.031,2.0312,2.0314,0,1.9115,1.9208,1.9353,1.9468,1.9508,1.9579,1.9687,1.9767,1.9866,1.9906,1.9981,2.0025,2.0125,2.0108,2.0249,2.0204,2.0258,2.0302,2.0307,2.0322,2.0302,2.0348,2.0432,2.0444,2.0334,2.0332,2.0331,0,1.9131,1.9292,1.94,1.945,1.9587,1.9636,1.9695,1.9793,1.9856,1.995,1.9992,2.0097,2.0154,2.0235,2.0306,2.0287,2.044,2.0429,2.0478,2.0476,2.0509,2.0507,2.0604,2.0541,2.0541,2.054,2.054,0,1.9213,1.9301,1.9409,1.9476,1.9576,1.9649,1.9746,1.9809,1.9895,1.9976,2.0026,2.0101,2.0189,2.0276,2.0332,2.044,2.0466,2.0502,2.0516,2.0499,2.0494,2.0537,2.0534,2.0544,2.0543,2.0542,2.0542,0,1.9249,1.9325,1.9447,1.9566,1.9598,1.9666,1.9769,1.9837,1.9898,2.0,2.0028,2.0126,2.023,2.0308,2.0444,2.0482,2.0598,2.0612,2.0564,2.0572,2.0616,2.0612,2.0746,2.0768,2.0688,2.0689,2.0689,0,1.9297,1.9366,1.9492,1.9549,1.9608,1.97,1.9764,1.9839,1.9904,2.0022,2.0076,2.0183,2.0274,2.0438,2.0522,2.0626,2.0645,2.0684,2.0661,2.0641,2.0647,2.0643,2.0651,2.0688,2.0688,2.0689,2.0689,0,1.9375,1.9409,1.95,1.9604,1.9679,1.9764,1.9851,1.9895,1.9985,2.0056,2.0163,2.0233,2.0371,2.0478,2.0591,2.0653,2.0687,2.0696,2.0713,2.0696,2.0667,2.0685,2.0575,2.0693,2.0692,2.0692,2.0692,2.0692,1.942,1.9484,1.9583,1.9682,1.9755,1.9834,1.9904,1.9974,2.0064,2.0182,2.022,2.0331,2.043,2.0584,2.0648,2.0737,2.0737,2.0761,2.0768,2.0773,2.0772,2.065,2.0757,2.0757,2.0757,2.0757,2.0757,0,1.9502,1.9568,1.9659,1.9778,1.9856,1.9879,1.9976,2.0041,2.0137,2.0226,2.0313,2.0437,2.0541,2.0632,2.074,2.0794,2.0812,2.082,2.0818,2.0832,2.0765,2.074,2.0803,2.0803,2.0803,2.0803,2.0803,2.0803,1.9554,1.9663,1.9709,1.9855,1.9921,2.0029,2.0083,2.0157,2.0228,2.0364,2.045,2.0508,2.0599,2.0714,2.0811,2.0835,2.0874,2.0878,2.0906,2.0842,2.0837,2.0831,2.0809,2.0885,2.0885,2.0966,2.0967,2.0967]},{"header":{"parameterUnit":"m.s-1","parameterCategory":1,"la1":30.2991,"la2":30.254,"lo1":-89.0895,"lo2":-89.0444,"dy":0.0017,"dx":0.0017,"nx":28,"ny":28,"refTime":"2026-02-25T09:00:00:Z","depth":0,"parameterNumber":3,"parameterNumberName":"V-component_of_WINDS"},"data":[0,0,0,0,0,0,0,0,0,0,0,0,0,0,0,0,0,0,0,0,0,0,0,0,0,0,0,0,0,0,0,0,0,0,0,0,0,0,0,0,0,0,0,0,0,0,0,0,0,0,0,0,0,0,0,0,0,0,4.802,4.8021,0,4.8102,4.8103,4.8104,4.8091,4.8089,4.8088,4.8087,4.8164,4.8167,4.8171,0,0,0,0,0,0,0,0,0,0,0,0,0,4.7846,4.7849,4.802,4.8021,4.8022,4.8102,4.8103,4.8104,4.8091,4.8089,4.8088,4.8086,4.8163,4.8167,4.8171,0,0,0,0,0,0,0,0,0,0,0,0,0,4.7924,4.7851,4.802,4.8025,4.8027,4.8101,4.8103,4.8104,4.8091,4.8089,4.8087,4.8085,4.8162,4.8167,4.8172,4.8244,0,0,4.8187,4.8189,0,0,0,0,0,0,0,0,4.792,4.793,4.8023,4.8025,4.8027,4.8084,4.807,4.8151,4.8092,4.8067,4.8087,4.8084,4.8139,4.8145,4.8165,4.8248,4.8251,4.8187,4.819,4.8192,4.8194,0,0,0,0,0,0,0,4.7914,4.7927,4.8052,4.8025,4.8027,4.8022,4.803,4.8085,4.8113,4.8069,4.8068,4.8078,4.8139,4.816,4.8167,4.8252,4.8187,4.8192,4.8195,4.8197,4.8398,4.8401,0,0,0,0,0,0,4.7908,4.7922,4.8049,4.8055,4.7967,4.8027,4.8036,4.8068,4.8112,4.8117,4.808,4.8077,4.8153,4.8161,4.817,4.8259,4.8192,4.8197,4.82,4.8396,4.8399,4.8402,0,0,0,0,0,0,4.7905,4.792,4.8046,4.7988,4.8004,4.8032,4.8067,4.807,4.8092,4.8121,4.8125,4.8097,4.8152,4.8162,4.8226,4.8261,4.8199,4.8204,4.8393,4.8397,4.84,4.8437,0,0,0,0,0,0,4.79,4.7918,4.7948,4.7989,4.8007,4.8104,4.8069,4.8073,4.8101,4.8099,4.8138,4.8143,4.8151,4.8219,4.8231,4.8267,4.8208,4.839,4.8395,4.8399,4.8432,4.8441,4.8448,0,0,0,0,0,4.7893,4.7953,4.7949,4.7965,4.8045,4.8106,4.8116,4.8126,4.8104,4.8133,4.8152,4.8141,4.8255,4.8225,4.8239,4.8277,4.8388,4.8394,4.8399,4.8429,4.8439,4.8448,0,0,0,0,0,0,4.7912,4.7959,4.7955,4.803,4.8065,4.8103,4.814,4.8136,4.8175,4.8171,4.8179,4.8188,4.8254,4.8271,4.8237,4.835,4.8318,4.8327,4.8336,4.8347,4.8354,4.8349,4.8212,0,0,0,0,0,4.7926,4.7973,4.801,4.8073,4.809,4.8112,4.8139,4.8144,4.8179,4.8193,4.8216,4.8248,4.8291,4.8319,4.836,4.8434,4.8443,4.8467,4.8475,4.8481,4.8489,4.853,4.8541,4.8419,4.8419,4.8419,0,0,4.7953,4.7984,4.8013,4.8077,4.8105,4.8152,4.8125,4.8176,4.8211,4.8199,4.8263,4.828,4.8317,4.8387,4.8418,4.8403,4.8524,4.8488,4.8493,4.8497,4.8536,4.8548,4.8558,4.8423,4.8422,4.8421,0,0,4.8028,4.8056,4.8112,4.8141,4.8183,4.8197,4.821,4.825,4.8263,4.8326,4.832,4.8359,4.8433,4.846,4.8484,4.8569,4.8561,4.8581,4.8623,4.8663,4.8673,4.8681,4.8713,4.8724,4.8588,4.8588,4.8588,0,4.8056,4.813,4.8141,4.8194,4.8222,4.8216,4.8273,4.8298,4.8351,4.837,4.8352,4.8446,4.847,4.8546,4.8567,4.8586,4.8601,4.8578,4.8671,4.868,4.8688,4.8718,4.873,4.8591,4.8591,4.859,4.859,0,4.8163,4.8214,4.8254,4.8308,4.8341,4.8395,4.8412,4.8443,4.8445,4.846,4.8525,4.8553,4.8601,4.8619,4.862,4.8695,4.8685,4.8669,4.8638,4.8702,4.873,4.8742,4.8594,4.8593,4.8593,4.8592,0,0,4.8253,4.8314,4.8328,4.8353,4.8399,4.8438,4.8491,4.854,4.8567,4.8602,4.8647,4.871,4.8696,4.8722,4.8726,4.8761,4.8828,4.8741,4.8742,4.8757,4.8914,4.8927,4.8941,4.8822,4.8824,4.8826,4.8911,0,4.8334,4.8432,4.8443,4.8529,4.8576,4.8571,4.8617,4.8649,4.8665,4.8706,4.8721,4.8767,4.8744,4.876,4.8795,4.8813,4.886,4.8806,4.8863,4.8865,4.8857,4.8955,4.8969,4.9049,4.8923,4.8924,4.8926,0,4.8442,4.8484,4.8576,4.8616,4.8636,4.8678,4.8724,4.8763,4.8799,4.8808,4.8838,4.8837,4.8891,4.8856,4.8929,4.8893,4.8916,4.8929,4.8932,4.8939,4.8901,4.8967,4.9074,4.9087,4.8943,4.8942,4.8941,0,4.8501,4.858,4.8645,4.8666,4.8715,4.8745,4.8766,4.88,4.8829,4.8867,4.8886,4.893,4.8954,4.8987,4.8997,4.8971,4.907,4.9036,4.9079,4.9079,4.9102,4.91,4.9216,4.9114,4.9113,4.9113,4.9113,0,4.8591,4.8647,4.8673,4.8713,4.8776,4.8787,4.8848,4.8868,4.8898,4.8941,4.8937,4.8977,4.8987,4.9028,4.9036,4.9096,4.9106,4.9115,4.9116,4.9116,4.9116,4.9133,4.9129,4.9116,4.9116,4.9115,4.9114,0,4.8668,4.8688,4.8759,4.88,4.8811,4.8856,4.889,4.8928,4.8942,4.8997,4.901,4.9032,4.9081,4.9094,4.9151,4.9156,4.9228,4.9223,4.9217,4.9217,4.926,4.9256,4.9392,4.9411,4.9294,4.9295,4.9296,0,4.8726,4.877,4.8816,4.8846,4.8869,4.8917,4.8947,4.8958,4.899,4.9034,4.9067,4.9115,4.9154,4.9231,4.9252,4.9295,4.9293,4.9337,4.9299,4.9298,4.9296,4.9294,4.9299,4.9345,4.9346,4.9347,4.9348,0,4.8827,4.8834,4.8879,4.8928,4.8965,4.9003,4.9039,4.9063,4.9079,4.9114,4.9165,4.9196,4.9255,4.9303,4.9347,4.9366,4.9361,4.936,4.9372,4.9374,4.9369,4.9374,4.9239,4.9357,4.9356,4.9356,4.9355,4.9355,4.8897,4.8937,4.8976,4.9026,4.9055,4.909,4.9128,4.9149,4.9192,4.9244,4.9247,4.9302,4.9336,4.9395,4.9417,4.9459,4.9445,4.9463,4.9468,4.9472,4.9477,4.9361,4.9466,4.9466,4.9466,4.9465,4.9465,0,4.9,4.9025,4.9071,4.9124,4.9163,4.9155,4.9195,4.9228,4.9278,4.9311,4.935,4.9409,4.9455,4.9479,4.9525,4.9554,4.9552,4.9566,4.9565,4.9569,4.9485,4.9471,4.9566,4.9566,4.9566,4.9566,4.9566,4.9566,4.9058,4.9125,4.9137,4.9218,4.9241,4.9298,4.9322,4.9353,4.938,4.9446,4.9486,4.9502,4.9531,4.9579,4.9621,4.9626,4.9644,4.9659,4.9664,4.9585,4.9575,4.9565,4.9552,4.9663,4.9663,4.9744,4.9745,4.9746]}]]